Time,TemperatureF,DewpointF,PressureIn,WindDirection,WindDirectionDegrees,WindSpeedMPH,WindSpeedGustMPH,Humidity,HourlyPrecipIn,Conditions,Clouds,dailyrainin,SolarRadiationWatts/m^2,SoftwareType,DateUTC
2013-03-05 00:00:00,31.9,21.9,29.74,WNW,297,12.0,13.0,66,0.00,,,0.00,0,WeatherCatV1.14B232,2013-03-05 05:00:00,
2013-03-05 00:05:00,32.0,21.6,29.74,WSW,250,5.0,10.0,65,0.00,,,0.00,0,WeatherCatV1.14B232,2013-03-05 05:05:00,
2013-03-05 00:10:00,32.0,21.6,29.74,WNW,283,4.0,14.0,65,0.00,,,0.00,0,WeatherCatV1.14B232,2013-03-05 05:10:00,
2013-03-05 00:15:00,32.0,21.9,29.74,NW,320,5.0,14.0,66,0.00,,,0.00,0,WeatherCatV1.14B232,2013-03-05 05:15:00,
2013-03-05 00:20:00,32.0,21.9,29.74,NW,304,7.0,10.0,66,0.00,,,0.00,0,WeatherCatV1.14B232,2013-03-05 05:20:00,
2013-03-05 00:25:00,32.0,21.9,29.74,NNW,348,2.0,11.0,66,0.00,,,0.00,0,WeatherCatV1.14B232,2013-03-05 05:25:00,
2013-03-05 00:30:00,32.0,21.9,29.75,West,265,5.0,9.0,66,0.00,,,0.00,0,WeatherCatV1.14B232,2013-03-05 05:30:00,
2013-03-05 00:35:00,32.0,21.9,29.75,NW,319,8.0,12.0,66,0.00,,,0.00,0,WeatherCatV1.14B232,2013-03-05 05:35:00,
2013-03-05 00:40:00,32.0,21.9,29.74,WNW,297,6.0,11.0,66,0.00,,,0.00,0,WeatherCatV1.14B232,2013-03-05 05:40:00,
2013-03-05 00:45:00,31.9,21.9,29.74,WNW,287,7.0,8.0,66,0.00,,,0.00,0,WeatherCatV1.14B232,2013-03-05 05:45:00,
2013-03-05 00:50:00,31.9,21.9,29.75,WNW,296,5.0,11.0,66,0.00,,,0.00,0,WeatherCatV1.14B232,2013-03-05 05:50:00,
2013-03-05 00:55:00,31.8,22.1,29.75,NNW,327,5.0,16.0,67,0.00,,,0.00,0,WeatherCatV1.14B232,2013-03-05 05:55:00,
2013-03-05 01:00:00,31.8,21.8,29.75,NW,307,8.0,12.0,66,0.00,,,0.00,0,WeatherCatV1.14B232,2013-03-05 06:00:00,
2013-03-05 01:05:00,31.9,21.9,29.75,NW,323,5.0,12.0,66,0.00,,,0.00,0,WeatherCatV1.14B232,2013-03-05 06:05:00,
2013-03-05 01:10:00,31.9,22.2,29.75,WNW,298,7.0,9.0,67,0.00,,,0.00,0,WeatherCatV1.14B232,2013-03-05 06:10:00,
2013-03-05 01:15:00,31.9,21.9,29.75,West,281,7.0,9.0,66,0.00,,,0.00,0,WeatherCatV1.14B232,2013-03-05 06:15:00,
2013-03-05 01:20:00,31.9,22.2,29.76,NW,320,6.0,8.0,67,0.00,,,0.00,0,WeatherCatV1.14B232,2013-03-05 06:20:00,
2013-03-05 01:25:00,31.8,22.1,29.75,WNW,296,9.0,10.0,67,0.00,,,0.00,0,WeatherCatV1.14B232,2013-03-05 06:25:00,
2013-03-05 01:30:00,31.7,22.4,29.75,WNW,289,5.0,8.0,68,0.00,,,0.00,0,WeatherCatV1.14B232,2013-03-05 06:30:00,
2013-03-05 01:35:00,31.8,22.1,29.76,WNW,297,7.0,8.0,67,0.00,,,0.00,0,WeatherCatV1.14B232,2013-03-05 06:35:00,
2013-03-05 01:40:00,31.7,22.0,29.76,NW,308,8.0,15.0,67,0.00,,,0.00,0,WeatherCatV1.14B232,2013-03-05 06:40:00,
2013-03-05 01:45:00,31.8,22.1,29.76,West,275,7.0,10.0,67,0.00,,,0.00,0,WeatherCatV1.14B232,2013-03-05 06:45:00,
2013-03-05 01:50:00,31.7,22.4,29.75,WNW,298,8.0,9.0,68,0.00,,,0.00,0,WeatherCatV1.14B232,2013-03-05 06:50:00,
2013-03-05 01:55:00,31.7,22.4,29.75,NW,324,6.0,9.0,68,0.00,,,0.00,0,WeatherCatV1.14B232,2013-03-05 06:55:00,
2013-03-05 02:00:00,31.6,22.3,29.75,WNW,288,7.0,10.0,68,0.00,,,0.00,0,WeatherCatV1.14B232,2013-03-05 07:00:00,
2013-03-05 02:05:00,31.6,22.3,29.76,NW,306,6.0,10.0,68,0.00,,,0.00,0,WeatherCatV1.14B232,2013-03-05 07:05:00,
2013-03-05 02:10:00,31.6,22.3,29.75,WNW,300,6.0,9.0,68,0.00,,,0.00,0,WeatherCatV1.14B232,2013-03-05 07:10:00,
2013-03-05 02:15:00,31.6,22.6,29.76,NW,304,7.0,8.0,69,0.00,,,0.00,0,WeatherCatV1.14B232,2013-03-05 07:15:00,
2013-03-05 02:20:00,31.6,22.6,29.76,NW,307,5.0,10.0,69,0.00,,,0.00,0,WeatherCatV1.14B232,2013-03-05 07:20:00,
2013-03-05 02:25:00,31.6,22.6,29.75,WNW,299,7.0,8.0,69,0.00,,,0.00,0,WeatherCatV1.14B232,2013-03-05 07:25:00,
2013-03-05 02:30:00,31.5,22.9,29.76,WNW,300,6.0,7.0,70,0.00,,,0.00,0,WeatherCatV1.14B232,2013-03-05 07:30:00,
2013-03-05 02:35:00,31.5,22.9,29.76,NW,306,5.0,11.0,70,0.00,,,0.00,0,WeatherCatV1.14B232,2013-03-05 07:35:00,
2013-03-05 02:40:00,31.6,22.6,29.76,WNW,297,5.0,9.0,69,0.00,,,0.00,0,WeatherCatV1.14B232,2013-03-05 07:40:00,
2013-03-05 02:45:00,31.6,22.6,29.76,West,281,8.0,9.0,69,0.00,,,0.00,0,WeatherCatV1.14B232,2013-03-05 07:45:00,
2013-03-05 02:50:00,31.5,22.9,29.76,WNW,284,5.0,8.0,70,0.00,,,0.00,0,WeatherCatV1.14B232,2013-03-05 07:50:00,
2013-03-05 02:55:00,31.5,22.9,29.75,WNW,294,5.0,8.0,70,0.00,,,0.00,0,WeatherCatV1.14B232,2013-03-05 07:55:00,
2013-03-05 03:00:00,31.5,22.9,29.75,NW,315,5.0,9.0,70,0.00,,,0.00,0,WeatherCatV1.14B232,2013-03-05 08:00:00,
2013-03-05 03:05:00,31.5,22.9,29.75,West,275,7.0,9.0,70,0.00,,,0.00,0,WeatherCatV1.14B232,2013-03-05 08:05:00,
2013-03-05 03:10:00,31.4,23.1,29.76,WNW,302,4.0,8.0,71,0.00,,,0.00,0,WeatherCatV1.14B232,2013-03-05 08:10:00,
2013-03-05 03:15:00,31.4,23.1,29.75,NNW,340,8.0,9.0,71,0.00,,,0.00,0,WeatherCatV1.14B232,2013-03-05 08:15:00,
2013-03-05 03:20:00,31.4,22.8,29.75,WNW,288,5.0,11.0,70,0.00,,,0.00,0,WeatherCatV1.14B232,2013-03-05 08:20:00,
2013-03-05 03:25:00,31.4,22.8,29.76,West,277,6.0,10.0,70,0.00,,,0.00,0,WeatherCatV1.14B232,2013-03-05 08:25:00,
2013-03-05 03:30:00,31.4,22.8,29.76,WNW,292,9.0,9.0,70,0.00,,,0.00,0,WeatherCatV1.14B232,2013-03-05 08:30:00,
2013-03-05 03:35:00,31.4,23.1,29.76,West,262,3.0,8.0,71,0.00,,,0.00,0,WeatherCatV1.14B232,2013-03-05 08:35:00,
2013-03-05 03:40:00,31.4,23.1,29.76,West,267,3.0,9.0,71,0.00,,,0.00,0,WeatherCatV1.14B232,2013-03-05 08:40:00,
2013-03-05 03:45:00,31.4,23.1,29.76,NW,306,4.0,7.0,71,0.00,,,0.00,0,WeatherCatV1.14B232,2013-03-05 08:45:00,
2013-03-05 03:50:00,31.4,23.1,29.77,NW,307,8.0,8.0,71,0.00,,,0.00,0,WeatherCatV1.14B232,2013-03-05 08:50:00,
2013-03-05 03:55:00,31.3,23.0,29.77,WNW,291,5.0,8.0,71,0.00,,,0.00,0,WeatherCatV1.14B232,2013-03-05 08:55:00,
2013-03-05 04:00:00,31.4,23.1,29.77,WNW,290,3.0,6.0,71,0.00,,,0.00,0,WeatherCatV1.14B232,2013-03-05 09:00:00,
2013-03-05 04:05:00,31.4,23.1,29.77,NW,305,1.0,6.0,71,0.00,,,0.00,0,WeatherCatV1.14B232,2013-03-05 09:05:00,
2013-03-05 04:10:00,31.4,23.1,29.77,NNW,328,7.0,7.0,71,0.00,,,0.00,0,WeatherCatV1.14B232,2013-03-05 09:10:00,
2013-03-05 04:15:00,31.4,23.1,29.77,WNW,302,4.0,8.0,71,0.00,,,0.00,0,WeatherCatV1.14B232,2013-03-05 09:15:00,
2013-03-05 04:20:00,31.4,23.1,29.77,WNW,286,4.0,6.0,71,0.00,,,0.00,0,WeatherCatV1.14B232,2013-03-05 09:20:00,
2013-03-05 04:25:00,31.4,23.1,29.78,WNW,287,3.0,7.0,71,0.00,,,0.00,0,WeatherCatV1.14B232,2013-03-05 09:25:00,
2013-03-05 04:30:00,31.3,23.0,29.78,WNW,300,2.0,7.0,71,0.00,,,0.00,0,WeatherCatV1.14B232,2013-03-05 09:30:00,
2013-03-05 04:35:00,31.3,23.3,29.78,WNW,295,1.0,6.0,72,0.00,,,0.00,0,WeatherCatV1.14B232,2013-03-05 09:35:00,
2013-03-05 04:40:00,31.2,23.2,29.78,NW,321,4.0,6.0,72,0.00,,,0.00,0,WeatherCatV1.14B232,2013-03-05 09:40:00,
2013-03-05 04:45:00,31.3,23.3,29.78,WNW,298,6.0,8.0,72,0.00,,,0.00,0,WeatherCatV1.14B232,2013-03-05 09:45:00,
2013-03-05 04:50:00,31.3,23.3,29.79,WNW,301,3.0,5.0,72,0.00,,,0.00,0,WeatherCatV1.14B232,2013-03-05 09:50:00,
2013-03-05 04:55:00,31.2,23.2,29.79,WNW,288,3.0,7.0,72,0.00,,,0.00,0,WeatherCatV1.14B232,2013-03-05 09:55:00,
2013-03-05 05:00:00,31.2,23.6,29.79,West,278,2.0,8.0,73,0.00,,,0.00,0,WeatherCatV1.14B232,2013-03-05 10:00:00,
2013-03-05 05:05:00,31.2,23.6,29.79,WNW,300,4.0,7.0,73,0.00,,,0.00,0,WeatherCatV1.14B232,2013-03-05 10:05:00,
2013-03-05 05:10:00,31.2,23.6,29.79,WNW,297,6.0,6.0,73,0.00,,,0.00,0,WeatherCatV1.14B232,2013-03-05 10:10:00,
2013-03-05 05:15:00,31.2,23.6,29.79,WNW,301,3.0,8.0,73,0.00,,,0.00,0,WeatherCatV1.14B232,2013-03-05 10:15:00,
2013-03-05 05:20:00,31.1,23.8,29.80,NW,305,0.0,4.0,74,0.00,,,0.00,0,WeatherCatV1.14B232,2013-03-05 10:20:00,
2013-03-05 05:25:00,31.0,23.7,29.80,West,267,3.0,4.0,74,0.00,,,0.00,0,WeatherCatV1.14B232,2013-03-05 10:25:00,
2013-03-05 05:30:00,31.0,23.7,29.80,WNW,298,6.0,6.0,74,0.00,,,0.00,0,WeatherCatV1.14B232,2013-03-05 10:30:00,
2013-03-05 05:35:00,31.0,23.7,29.80,NW,304,3.0,5.0,74,0.00,,,0.00,0,WeatherCatV1.14B232,2013-03-05 10:35:00,
2013-03-05 05:40:00,30.9,23.6,29.80,WNW,299,2.0,5.0,74,0.00,,,0.00,0,WeatherCatV1.14B232,2013-03-05 10:40:00,
2013-03-05 05:45:00,30.9,23.6,29.80,WNW,303,5.0,6.0,74,0.00,,,0.00,0,WeatherCatV1.14B232,2013-03-05 10:45:00,
2013-03-05 05:50:00,31.0,23.7,29.81,WNW,302,3.0,10.0,74,0.00,,,0.00,0,WeatherCatV1.14B232,2013-03-05 10:50:00,
2013-03-05 05:55:00,31.1,23.8,29.81,West,275,3.0,4.0,74,0.00,,,0.00,0,WeatherCatV1.14B232,2013-03-05 10:55:00,
2013-03-05 06:00:00,31.0,23.7,29.81,NNW,330,1.0,5.0,74,0.00,,,0.00,0,WeatherCatV1.14B232,2013-03-05 11:00:00,
2013-03-05 06:05:00,31.1,23.8,29.81,West,272,3.0,5.0,74,0.00,,,0.00,0,WeatherCatV1.14B232,2013-03-05 11:05:00,
2013-03-05 06:10:00,31.2,23.9,29.81,WNW,301,3.0,9.0,74,0.00,,,0.00,0,WeatherCatV1.14B232,2013-03-05 11:10:00,
2013-03-05 06:15:00,31.2,23.9,29.81,NW,316,2.0,7.0,74,0.00,,,0.00,0,WeatherCatV1.14B232,2013-03-05 11:15:00,
2013-03-05 06:20:00,31.1,23.8,29.81,NNW,336,2.0,4.0,74,0.00,,,0.00,0,WeatherCatV1.14B232,2013-03-05 11:20:00,
2013-03-05 06:25:00,31.1,24.1,29.82,WNW,301,4.0,5.0,75,0.00,,,0.00,0,WeatherCatV1.14B232,2013-03-05 11:25:00,
2013-03-05 06:30:00,31.0,24.0,29.82,WNW,298,5.0,6.0,75,0.00,,,0.00,5,WeatherCatV1.14B232,2013-03-05 11:30:00,
2013-03-05 06:35:00,31.0,23.7,29.82,West,273,4.0,6.0,74,0.00,,,0.00,7,WeatherCatV1.14B232,2013-03-05 11:35:00,
2013-03-05 06:40:00,31.0,24.0,29.83,NW,304,2.0,3.0,75,0.00,,,0.00,9,WeatherCatV1.14B232,2013-03-05 11:40:00,
2013-03-05 06:45:00,31.0,24.0,29.83,WNW,300,2.0,5.0,75,0.00,,,0.00,11,WeatherCatV1.14B232,2013-03-05 11:45:00,
2013-03-05 06:50:00,31.0,24.0,29.83,NW,315,3.0,5.0,75,0.00,,,0.00,12,WeatherCatV1.14B232,2013-03-05 11:50:00,
2013-03-05 06:55:00,31.1,24.1,29.83,NW,311,1.0,4.0,75,0.00,,,0.00,14,WeatherCatV1.14B232,2013-03-05 11:55:00,
2013-03-05 07:00:00,31.2,24.2,29.83,WNW,298,0.0,5.0,75,0.00,,,0.00,16,WeatherCatV1.14B232,2013-03-05 12:00:00,
2013-03-05 07:05:00,31.2,24.2,29.83,NW,306,3.0,4.0,75,0.00,,,0.00,18,WeatherCatV1.14B232,2013-03-05 12:05:00,
2013-03-05 07:10:00,31.3,24.3,29.83,NNW,329,4.0,5.0,75,0.00,,,0.00,21,WeatherCatV1.14B232,2013-03-05 12:10:00,
2013-03-05 07:15:00,31.4,24.1,29.84,NNW,328,0.0,4.0,74,0.00,,,0.00,23,WeatherCatV1.14B232,2013-03-05 12:15:00,
2013-03-05 07:20:00,31.5,24.5,29.84,West,261,0.0,3.0,75,0.00,,,0.00,25,WeatherCatV1.14B232,2013-03-05 12:20:00,
2013-03-05 07:25:00,31.6,24.3,29.84,NW,306,2.0,5.0,74,0.00,,,0.00,26,WeatherCatV1.14B232,2013-03-05 12:25:00,
2013-03-05 07:30:00,31.7,24.4,29.84,NW,304,1.0,5.0,74,0.00,,,0.00,30,WeatherCatV1.14B232,2013-03-05 12:30:00,
2013-03-05 07:35:00,32.0,24.3,29.84,NW,313,1.0,5.0,73,0.00,,,0.00,30,WeatherCatV1.14B232,2013-03-05 12:35:00,
2013-03-05 07:40:00,32.2,24.5,29.84,WNW,298,6.0,6.0,73,0.00,,,0.00,40,WeatherCatV1.14B232,2013-03-05 12:40:00,
2013-03-05 07:45:00,32.4,24.7,29.84,NW,304,4.0,6.0,73,0.00,,,0.00,30,WeatherCatV1.14B232,2013-03-05 12:45:00,
2013-03-05 07:50:00,32.5,24.8,29.84,NW,320,0.0,4.0,73,0.00,,,0.00,156,WeatherCatV1.14B232,2013-03-05 12:50:00,
2013-03-05 07:55:00,32.7,24.7,29.85,WNW,294,5.0,7.0,72,0.00,,,0.00,97,WeatherCatV1.14B232,2013-03-05 12:55:00,
2013-03-05 08:00:00,32.8,24.4,29.85,WSW,246,7.0,8.0,71,0.00,,,0.00,65,WeatherCatV1.14B232,2013-03-05 13:00:00,
2013-03-05 08:05:00,33.0,25.0,29.85,WNW,300,1.0,6.0,72,0.00,,,0.00,39,WeatherCatV1.14B232,2013-03-05 13:05:00,
2013-03-05 08:10:00,33.1,24.7,29.85,NW,321,6.0,7.0,71,0.00,,,0.00,199,WeatherCatV1.14B232,2013-03-05 13:10:00,
2013-03-05 08:15:00,33.4,25.0,29.85,NNW,329,4.0,9.0,71,0.00,,,0.00,130,WeatherCatV1.14B232,2013-03-05 13:15:00,
2013-03-05 08:20:00,33.5,25.1,29.85,NNW,329,2.0,7.0,71,0.00,,,0.00,253,WeatherCatV1.14B232,2013-03-05 13:20:00,
2013-03-05 08:25:00,33.9,24.8,29.85,NW,311,3.0,9.0,69,0.00,,,0.00,269,WeatherCatV1.14B232,2013-03-05 13:25:00,
2013-03-05 08:30:00,33.9,24.8,29.85,North,355,2.0,6.0,69,0.00,,,0.00,237,WeatherCatV1.14B232,2013-03-05 13:30:00,
2013-03-05 08:35:00,34.3,25.2,29.85,NNW,336,1.0,7.0,69,0.00,,,0.00,232,WeatherCatV1.14B232,2013-03-05 13:35:00,
2013-03-05 08:40:00,34.4,25.3,29.85,NW,315,1.0,6.0,69,0.00,,,0.00,255,WeatherCatV1.14B232,2013-03-05 13:40:00,
2013-03-05 08:45:00,34.8,25.3,29.85,WNW,288,5.0,7.0,68,0.00,,,0.00,348,WeatherCatV1.14B232,2013-03-05 13:45:00,
2013-03-05 08:50:00,35.1,25.3,29.85,WNW,288,5.0,9.0,67,0.00,,,0.00,373,WeatherCatV1.14B232,2013-03-05 13:50:00,
2013-03-05 08:55:00,35.3,25.8,29.85,WNW,296,6.0,7.0,68,0.00,,,0.00,352,WeatherCatV1.14B232,2013-03-05 13:55:00,
2013-03-05 09:00:00,35.6,25.7,29.85,NW,322,2.0,8.0,67,0.00,,,0.00,394,WeatherCatV1.14B232,2013-03-05 14:00:00,
2013-03-05 09:05:00,35.8,25.2,29.85,WNW,302,7.0,9.0,65,0.00,,,0.00,322,WeatherCatV1.14B232,2013-03-05 14:05:00,
2013-03-05 09:10:00,36.1,26.2,29.85,NW,323,4.0,5.0,67,0.00,,,0.00,350,WeatherCatV1.14B232,2013-03-05 14:10:00,
2013-03-05 09:15:00,36.2,25.6,29.85,NW,313,1.0,7.0,65,0.00,,,0.00,457,WeatherCatV1.14B232,2013-03-05 14:15:00,
2013-03-05 09:20:00,36.5,25.9,29.85,North,355,3.0,4.0,65,0.00,,,0.00,438,WeatherCatV1.14B232,2013-03-05 14:20:00,
2013-03-05 09:25:00,36.9,26.2,29.85,WNW,289,4.0,7.0,65,0.00,,,0.00,482,WeatherCatV1.14B232,2013-03-05 14:25:00,
2013-03-05 09:30:00,37.0,26.3,29.85,WNW,298,4.0,5.0,65,0.00,,,0.00,519,WeatherCatV1.14B232,2013-03-05 14:30:00,
2013-03-05 09:35:00,37.2,25.8,29.85,WNW,296,4.0,9.0,63,0.00,,,0.00,534,WeatherCatV1.14B232,2013-03-05 14:35:00,
2013-03-05 09:40:00,37.3,25.9,29.85,WNW,300,3.0,9.0,63,0.00,,,0.00,517,WeatherCatV1.14B232,2013-03-05 14:40:00,
2013-03-05 09:45:00,37.6,26.2,29.85,WNW,300,4.0,8.0,63,0.00,,,0.00,322,WeatherCatV1.14B232,2013-03-05 14:45:00,
2013-03-05 09:50:00,38.1,27.0,29.85,NW,305,2.0,3.0,64,0.00,,,0.00,348,WeatherCatV1.14B232,2013-03-05 14:50:00,
2013-03-05 09:55:00,38.3,26.4,29.85,NNW,347,1.0,6.0,62,0.00,,,0.00,325,WeatherCatV1.14B232,2013-03-05 14:55:00,
2013-03-05 10:00:00,38.6,27.1,29.85,WNW,294,4.0,7.0,63,0.00,,,0.00,529,WeatherCatV1.14B232,2013-03-05 15:00:00,
2013-03-05 10:05:00,38.8,26.9,29.85,WNW,293,4.0,4.0,62,0.00,,,0.00,606,WeatherCatV1.14B232,2013-03-05 15:05:00,
2013-03-05 10:10:00,39.2,26.9,29.85,WNW,292,1.0,5.0,61,0.00,,,0.00,619,WeatherCatV1.14B232,2013-03-05 15:10:00,
2013-03-05 10:15:00,39.8,27.1,29.85,WNW,298,1.0,9.0,60,0.00,,,0.00,628,WeatherCatV1.14B232,2013-03-05 15:15:00,
2013-03-05 10:20:00,39.6,26.9,29.84,NW,325,0.0,3.0,60,0.00,,,0.00,638,WeatherCatV1.14B232,2013-03-05 15:20:00,
2013-03-05 10:25:00,39.9,27.2,29.84,WNW,300,2.0,5.0,60,0.00,,,0.00,649,WeatherCatV1.14B232,2013-03-05 15:25:00,
2013-03-05 10:30:00,40.0,26.8,29.84,WNW,301,2.0,9.0,59,0.00,,,0.00,656,WeatherCatV1.14B232,2013-03-05 15:30:00,
2013-03-05 10:35:00,40.7,27.9,29.84,NNW,329,5.0,7.0,60,0.00,,,0.00,666,WeatherCatV1.14B232,2013-03-05 15:35:00,
2013-03-05 10:40:00,40.9,28.1,29.84,WNW,293,2.0,7.0,60,0.00,,,0.00,673,WeatherCatV1.14B232,2013-03-05 15:40:00,
2013-03-05 10:45:00,41.6,27.5,29.83,WNW,302,3.0,4.0,57,0.00,,,0.00,682,WeatherCatV1.14B232,2013-03-05 15:45:00,
2013-03-05 10:50:00,40.9,28.1,29.83,NW,323,4.0,4.0,60,0.00,,,0.00,689,WeatherCatV1.14B232,2013-03-05 15:50:00,
2013-03-05 10:55:00,41.5,28.7,29.84,NNW,337,2.0,4.0,60,0.00,,,0.00,696,WeatherCatV1.14B232,2013-03-05 15:55:00,
2013-03-05 11:00:00,42.0,27.5,29.83,WNW,302,2.0,5.0,56,0.00,,,0.00,703,WeatherCatV1.14B232,2013-03-05 16:00:00,
2013-03-05 11:05:00,41.4,27.3,29.83,West,280,4.0,6.0,57,0.00,,,0.00,708,WeatherCatV1.14B232,2013-03-05 16:05:00,
2013-03-05 11:10:00,42.2,29.3,29.83,NNW,329,1.0,5.0,60,0.00,,,0.00,714,WeatherCatV1.14B232,2013-03-05 16:10:00,
2013-03-05 11:15:00,42.2,27.2,29.83,NW,304,3.0,4.0,55,0.00,,,0.00,719,WeatherCatV1.14B232,2013-03-05 16:15:00,
2013-03-05 11:20:00,42.9,29.2,29.83,NW,306,4.0,4.0,58,0.00,,,0.00,722,WeatherCatV1.14B232,2013-03-05 16:20:00,
2013-03-05 11:25:00,43.6,28.5,29.83,NW,315,4.0,7.0,55,0.00,,,0.00,729,WeatherCatV1.14B232,2013-03-05 16:25:00,
2013-03-05 11:30:00,42.8,27.8,29.83,North,351,2.0,9.0,55,0.00,,,0.00,731,WeatherCatV1.14B232,2013-03-05 16:30:00,
2013-03-05 11:35:00,42.9,29.2,29.83,NW,307,3.0,5.0,58,0.00,,,0.00,737,WeatherCatV1.14B232,2013-03-05 16:35:00,
2013-03-05 11:40:00,43.1,28.9,29.83,NW,309,2.0,4.0,57,0.00,,,0.00,742,WeatherCatV1.14B232,2013-03-05 16:40:00,
2013-03-05 11:45:00,43.9,29.2,29.83,WNW,302,1.0,3.0,56,0.00,,,0.00,742,WeatherCatV1.14B232,2013-03-05 16:45:00,
2013-03-05 11:50:00,44.2,27.7,29.83,WNW,285,3.0,6.0,52,0.00,,,0.00,745,WeatherCatV1.14B232,2013-03-05 16:50:00,
2013-03-05 11:55:00,44.1,28.1,29.83,WNW,298,1.0,4.0,53,0.00,,,0.00,745,WeatherCatV1.14B232,2013-03-05 16:55:00,
2013-03-05 12:00:00,44.3,27.8,29.83,NW,305,0.0,7.0,52,0.00,,,0.00,747,WeatherCatV1.14B232,2013-03-05 17:00:00,
2013-03-05 12:05:00,44.0,29.3,29.83,NW,314,1.0,6.0,56,0.00,,,0.00,745,WeatherCatV1.14B232,2013-03-05 17:05:00,
2013-03-05 12:10:00,44.7,29.1,29.83,WNW,300,2.0,4.0,54,0.00,,,0.00,745,WeatherCatV1.14B232,2013-03-05 17:10:00,
2013-03-05 12:15:00,45.1,29.0,29.83,NNW,327,1.0,4.0,53,0.00,,,0.00,751,WeatherCatV1.14B232,2013-03-05 17:15:00,
2013-03-05 12:20:00,44.5,28.4,29.83,WNW,284,2.0,5.0,53,0.00,,,0.00,747,WeatherCatV1.14B232,2013-03-05 17:20:00,
2013-03-05 12:25:00,44.8,28.7,29.82,WNW,296,3.0,6.0,53,0.00,,,0.00,745,WeatherCatV1.14B232,2013-03-05 17:25:00,
2013-03-05 12:30:00,44.4,28.8,29.82,WNW,284,2.0,6.0,54,0.00,,,0.00,744,WeatherCatV1.14B232,2013-03-05 17:30:00,
2013-03-05 12:35:00,44.6,28.1,29.82,West,278,4.0,6.0,52,0.00,,,0.00,744,WeatherCatV1.14B232,2013-03-05 17:35:00,
2013-03-05 12:40:00,45.2,29.1,29.82,NW,321,3.0,7.0,53,0.00,,,0.00,738,WeatherCatV1.14B232,2013-03-05 17:40:00,
2013-03-05 12:45:00,45.7,29.6,29.82,NW,317,5.0,5.0,53,0.00,,,0.00,735,WeatherCatV1.14B232,2013-03-05 17:45:00,
2013-03-05 12:46:00,45.6,28.5,29.82,WNW,297,2.0,5.0,51,0.00,,,0.00,733,WeatherCatV1.14B232,2013-03-05 17:46:00,
2013-03-05 12:51:00,44.7,28.2,29.82,WSW,254,3.0,3.0,52,0.00,,,0.00,731,WeatherCatV1.14B232,2013-03-05 17:51:00,
2013-03-05 12:56:00,45.1,28.5,29.82,WNW,295,4.0,8.0,52,0.00,,,0.00,728,WeatherCatV1.14B232,2013-03-05 17:56:00,
2013-03-05 13:01:00,45.3,29.2,29.82,WNW,288,5.0,7.0,53,0.00,,,0.00,722,WeatherCatV1.14B232,2013-03-05 18:01:00,
2013-03-05 13:06:00,45.1,28.5,29.82,WNW,298,5.0,8.0,52,0.00,,,0.00,715,WeatherCatV1.14B232,2013-03-05 18:06:00,
2013-03-05 13:11:00,45.9,28.8,29.82,NW,314,3.0,6.0,51,0.00,,,0.00,714,WeatherCatV1.14B232,2013-03-05 18:11:00,
2013-03-05 13:16:00,45.9,30.2,29.82,WNW,294,2.0,4.0,54,0.00,,,0.00,708,WeatherCatV1.14B232,2013-03-05 18:16:00,
2013-03-05 13:21:00,45.4,28.3,29.82,WNW,290,8.0,10.0,51,0.00,,,0.00,703,WeatherCatV1.14B232,2013-03-05 18:21:00,
2013-03-05 13:26:00,45.0,28.4,29.82,NW,312,4.0,7.0,52,0.00,,,0.00,694,WeatherCatV1.14B232,2013-03-05 18:26:00,
2013-03-05 13:31:00,45.0,29.4,29.82,WNW,285,1.0,6.0,54,0.00,,,0.00,686,WeatherCatV1.14B232,2013-03-05 18:31:00,
2013-03-05 13:36:00,45.5,28.4,29.82,NW,305,7.0,7.0,51,0.00,,,0.00,680,WeatherCatV1.14B232,2013-03-05 18:36:00,
2013-03-05 13:41:00,45.2,28.2,29.82,NNW,329,2.0,7.0,51,0.00,,,0.00,671,WeatherCatV1.14B232,2013-03-05 18:41:00,
2013-03-05 13:46:00,45.5,28.4,29.82,WNW,302,6.0,7.0,51,0.00,,,0.00,664,WeatherCatV1.14B232,2013-03-05 18:46:00,
2013-03-05 13:51:00,44.9,28.4,29.83,WNW,298,6.0,6.0,52,0.00,,,0.00,654,WeatherCatV1.14B232,2013-03-05 18:51:00,
2013-03-05 13:56:00,45.6,28.5,29.83,WNW,294,5.0,6.0,51,0.00,,,0.00,647,WeatherCatV1.14B232,2013-03-05 18:56:00,
2013-03-05 14:01:00,45.6,28.5,29.83,NW,305,3.0,4.0,51,0.00,,,0.00,534,WeatherCatV1.14B232,2013-03-05 19:01:00,
2013-03-05 14:06:00,44.8,27.3,29.83,NW,310,2.0,7.0,50,0.00,,,0.00,155,WeatherCatV1.14B232,2013-03-05 19:06:00,
2013-03-05 14:11:00,44.6,28.1,29.83,NW,304,1.0,3.0,52,0.00,,,0.00,167,WeatherCatV1.14B232,2013-03-05 19:11:00,
2013-03-05 14:16:00,44.4,28.4,29.83,WNW,296,1.0,5.0,53,0.00,,,0.00,88,WeatherCatV1.14B232,2013-03-05 19:16:00,
2013-03-05 14:21:00,44.6,28.1,29.83,WNW,302,1.0,8.0,52,0.00,,,0.00,53,WeatherCatV1.14B232,2013-03-05 19:21:00,
2013-03-05 14:26:00,44.6,28.1,29.83,WNW,301,2.0,3.0,52,0.00,,,0.00,58,WeatherCatV1.14B232,2013-03-05 19:26:00,
2013-03-05 14:31:00,44.7,27.7,29.83,West,281,3.0,7.0,51,0.00,,,0.00,44,WeatherCatV1.14B232,2013-03-05 19:31:00,
2013-03-05 14:36:00,44.7,27.2,29.83,NW,304,2.0,7.0,50,0.00,,,0.00,44,WeatherCatV1.14B232,2013-03-05 19:36:00,
2013-03-05 14:41:00,44.8,28.3,29.83,NW,315,0.0,4.0,52,0.00,,,0.00,42,WeatherCatV1.14B232,2013-03-05 19:41:00,
2013-03-05 14:46:00,44.8,28.3,29.83,WNW,300,1.0,6.0,52,0.00,,,0.00,42,WeatherCatV1.14B232,2013-03-05 19:46:00,
2013-03-05 14:51:00,44.9,28.4,29.83,NNW,329,1.0,2.0,52,0.00,,,0.00,42,WeatherCatV1.14B232,2013-03-05 19:51:00,
2013-03-05 14:56:00,44.9,28.4,29.82,WNW,295,1.0,4.0,52,0.00,,,0.00,69,WeatherCatV1.14B232,2013-03-05 19:56:00,
2013-03-05 15:01:00,45.0,28.0,29.82,WSW,250,4.0,7.0,51,0.00,,,0.00,97,WeatherCatV1.14B232,2013-03-05 20:01:00,
2013-03-05 15:06:00,44.9,28.4,29.82,West,270,2.0,3.0,52,0.00,,,0.00,84,WeatherCatV1.14B232,2013-03-05 20:06:00,
2013-03-05 15:11:00,44.9,27.9,29.82,West,279,4.0,5.0,51,0.00,,,0.00,120,WeatherCatV1.14B232,2013-03-05 20:11:00,
2013-03-05 15:16:00,44.7,27.7,29.83,WNW,302,3.0,4.0,51,0.00,,,0.00,54,WeatherCatV1.14B232,2013-03-05 20:16:00,
2013-03-05 15:21:00,44.7,27.7,29.83,NW,308,2.0,4.0,51,0.00,,,0.00,49,WeatherCatV1.14B232,2013-03-05 20:21:00,
2013-03-05 15:26:00,44.8,28.3,29.83,West,281,1.0,5.0,52,0.00,,,0.00,39,WeatherCatV1.14B232,2013-03-05 20:26:00,
2013-03-05 15:31:00,44.9,27.9,29.83,West,263,1.0,3.0,51,0.00,,,0.00,60,WeatherCatV1.14B232,2013-03-05 20:31:00,
2013-03-05 15:36:00,45.2,27.7,29.83,West,276,3.0,5.0,50,0.00,,,0.00,44,WeatherCatV1.14B232,2013-03-05 20:36:00,
2013-03-05 15:41:00,45.1,27.6,29.82,WNW,293,4.0,5.0,50,0.00,,,0.00,40,WeatherCatV1.14B232,2013-03-05 20:41:00,
2013-03-05 15:46:00,45.1,27.6,29.82,WNW,297,1.0,4.0,50,0.00,,,0.00,60,WeatherCatV1.14B232,2013-03-05 20:46:00,
2013-03-05 15:51:00,45.0,27.5,29.82,WNW,301,3.0,4.0,50,0.00,,,0.00,39,WeatherCatV1.14B232,2013-03-05 20:51:00,
2013-03-05 15:56:00,45.0,28.0,29.82,WNW,302,1.0,3.0,51,0.00,,,0.00,33,WeatherCatV1.14B232,2013-03-05 20:56:00,
2013-03-05 16:01:00,45.2,27.7,29.82,WNW,297,1.0,3.0,50,0.00,,,0.00,47,WeatherCatV1.14B232,2013-03-05 21:01:00,
2013-03-05 16:06:00,45.2,27.7,29.82,West,265,1.0,4.0,50,0.00,,,0.00,49,WeatherCatV1.14B232,2013-03-05 21:06:00,
2013-03-05 16:11:00,45.4,27.4,29.82,West,279,1.0,3.0,49,0.00,,,0.00,39,WeatherCatV1.14B232,2013-03-05 21:11:00,
2013-03-05 16:16:00,45.2,27.7,29.82,West,269,1.0,4.0,50,0.00,,,0.00,33,WeatherCatV1.14B232,2013-03-05 21:16:00,
2013-03-05 16:21:00,45.1,27.6,29.82,WNW,298,1.0,3.0,50,0.00,,,0.00,46,WeatherCatV1.14B232,2013-03-05 21:21:00,
2013-03-05 16:26:00,45.0,27.5,29.82,West,275,3.0,3.0,50,0.00,,,0.00,32,WeatherCatV1.14B232,2013-03-05 21:26:00,
2013-03-05 16:31:00,45.1,27.6,29.81,WNW,302,2.0,3.0,50,0.00,,,0.00,28,WeatherCatV1.14B232,2013-03-05 21:31:00,
2013-03-05 16:36:00,45.1,27.6,29.82,WNW,284,2.0,4.0,50,0.00,,,0.00,32,WeatherCatV1.14B232,2013-03-05 21:36:00,
2013-03-05 16:41:00,45.2,27.2,29.82,WNW,293,3.0,4.0,49,0.00,,,0.00,28,WeatherCatV1.14B232,2013-03-05 21:41:00,
2013-03-05 16:46:00,45.1,27.6,29.82,WNW,292,0.0,3.0,50,0.00,,,0.00,30,WeatherCatV1.14B232,2013-03-05 21:46:00,
2013-03-05 16:51:00,44.9,27.9,29.82,West,275,0.0,0.0,51,0.00,,,0.00,30,WeatherCatV1.14B232,2013-03-05 21:51:00,
2013-03-05 16:56:00,44.8,27.8,29.82,West,275,0.0,0.0,51,0.00,,,0.00,26,WeatherCatV1.14B232,2013-03-05 21:56:00,
2013-03-05 17:01:00,44.4,28.4,29.82,NE,46,1.0,2.0,53,0.00,,,0.00,25,WeatherCatV1.14B232,2013-03-05 22:01:00,
2013-03-05 17:06:00,44.5,28.0,29.82,NE,48,0.0,4.0,52,0.00,,,0.00,23,WeatherCatV1.14B232,2013-03-05 22:06:00,
2013-03-05 17:11:00,44.5,27.5,29.82,NE,49,0.0,3.0,51,0.00,,,0.00,21,WeatherCatV1.14B232,2013-03-05 22:11:00,
2013-03-05 17:16:00,44.5,27.5,29.82,ENE,74,0.0,1.0,51,0.00,,,0.00,19,WeatherCatV1.14B232,2013-03-05 22:16:00,
2013-03-05 17:21:00,44.4,27.9,29.82,NE,39,2.0,2.0,52,0.00,,,0.00,19,WeatherCatV1.14B232,2013-03-05 22:21:00,
2013-03-05 17:26:00,44.1,27.6,29.83,NE,55,0.0,4.0,52,0.00,,,0.00,16,WeatherCatV1.14B232,2013-03-05 22:26:00,
2013-03-05 17:32:00,44.0,28.0,29.83,NNE,19,0.0,2.0,53,0.00,,,0.00,12,WeatherCatV1.14B232,2013-03-05 22:32:00,
2013-03-05 17:37:00,43.8,28.2,29.83,NE,36,0.0,2.0,54,0.00,,,0.00,11,WeatherCatV1.14B232,2013-03-05 22:37:00,
2013-03-05 17:42:00,43.4,27.9,29.83,NE,36,0.0,2.0,54,0.00,,,0.00,7,WeatherCatV1.14B232,2013-03-05 22:42:00,
2013-03-05 17:47:00,43.4,27.4,29.83,NNE,30,0.0,0.0,53,0.00,,,0.00,5,WeatherCatV1.14B232,2013-03-05 22:47:00,
2013-03-05 17:52:00,43.1,27.6,29.83,NNE,30,0.0,0.0,54,0.00,,,0.00,0,WeatherCatV1.14B232,2013-03-05 22:52:00,
2013-03-05 17:57:00,42.9,27.4,29.83,NNE,30,0.0,0.0,54,0.00,,,0.00,0,WeatherCatV1.14B232,2013-03-05 22:57:00,
2013-03-05 18:02:00,42.5,27.9,29.84,NNE,30,0.0,0.0,56,0.00,,,0.00,0,WeatherCatV1.14B232,2013-03-05 23:02:00,
2013-03-05 18:07:00,41.9,27.4,29.84,NNE,30,0.0,0.0,56,0.00,,,0.00,0,WeatherCatV1.14B232,2013-03-05 23:07:00,
2013-03-05 18:12:00,41.5,27.4,29.84,NNE,30,0.0,0.0,57,0.00,,,0.00,0,WeatherCatV1.14B232,2013-03-05 23:12:00,
2013-03-05 18:17:00,41.2,27.1,29.84,NNE,30,0.0,0.0,57,0.00,,,0.00,0,WeatherCatV1.14B232,2013-03-05 23:17:00,
2013-03-05 18:22:00,40.9,26.9,29.85,NNE,30,0.0,0.0,57,0.00,,,0.00,0,WeatherCatV1.14B232,2013-03-05 23:22:00,
2013-03-05 18:27:00,40.4,27.2,29.85,NNE,30,0.0,0.0,59,0.00,,,0.00,0,WeatherCatV1.14B232,2013-03-05 23:27:00,
2013-03-05 18:30:00,40.1,27.3,29.85,NNE,30,0.0,0.0,60,0.00,,,0.00,0,WeatherCatV1.14B232,2013-03-05 23:30:00,
2013-03-05 18:35:00,40.0,28.0,29.85,NNE,30,0.0,0.0,62,0.00,,,0.00,0,WeatherCatV1.14B232,2013-03-05 23:35:00,
2013-03-05 18:40:00,39.8,27.1,29.85,NNE,30,0.0,0.0,60,0.00,,,0.00,0,WeatherCatV1.14B232,2013-03-05 23:40:00,
2013-03-05 18:45:00,39.7,27.4,29.85,NNE,30,0.0,0.0,61,0.00,,,0.00,0,WeatherCatV1.14B232,2013-03-05 23:45:00,
2013-03-05 18:51:00,39.6,27.3,29.85,NNE,30,0.0,0.0,61,0.00,,,0.00,0,WeatherCatV1.14B232,2013-03-05 23:51:00,
2013-03-05 18:56:00,40.0,27.3,29.85,NNE,30,0.0,0.0,60,0.00,,,0.00,0,WeatherCatV1.14B232,2013-03-05 23:56:00,
2013-03-05 19:01:00,40.4,27.2,29.86,NNE,30,0.0,0.0,59,0.00,,,0.00,0,WeatherCatV1.14B232,2013-03-06 00:01:00,
2013-03-05 19:06:00,40.9,27.7,29.85,East,93,1.0,2.0,59,0.00,,,0.00,0,WeatherCatV1.14B232,2013-03-06 00:06:00,
2013-03-05 19:11:00,41.6,28.3,29.85,ESE,123,1.0,2.0,59,0.00,,,0.00,0,WeatherCatV1.14B232,2013-03-06 00:11:00,
2013-03-05 19:16:00,41.8,28.9,29.85,ESE,117,0.0,0.0,60,0.00,,,0.00,0,WeatherCatV1.14B232,2013-03-06 00:16:00,
2013-03-05 19:21:00,41.7,29.3,29.85,SE,130,0.0,0.0,61,0.00,,,0.00,0,WeatherCatV1.14B232,2013-03-06 00:21:00,
2013-03-05 19:26:00,41.6,29.2,29.85,ESE,116,0.0,0.0,61,0.00,,,0.00,0,WeatherCatV1.14B232,2013-03-06 00:26:00,
2013-03-05 19:31:00,41.5,29.1,29.86,SE,135,0.0,5.0,61,0.00,,,0.00,0,WeatherCatV1.14B232,2013-03-06 00:31:00,
2013-03-05 19:36:00,41.5,29.1,29.86,ESE,121,1.0,2.0,61,0.00,,,0.00,0,WeatherCatV1.14B232,2013-03-06 00:36:00,
2013-03-05 19:41:00,41.3,29.3,29.86,SE,134,0.0,0.0,62,0.00,,,0.00,0,WeatherCatV1.14B232,2013-03-06 00:41:00,
2013-03-05 19:46:00,40.9,29.3,29.86,SE,133,0.0,1.0,63,0.00,,,0.00,0,WeatherCatV1.14B232,2013-03-06 00:46:00,
2013-03-05 19:51:00,40.4,29.2,29.85,SE,134,0.0,0.0,64,0.00,,,0.00,0,WeatherCatV1.14B232,2013-03-06 00:51:00,
2013-03-05 19:56:00,40.0,29.6,29.85,SE,134,0.0,0.0,66,0.00,,,0.00,0,WeatherCatV1.14B232,2013-03-06 00:56:00,
2013-03-05 20:01:00,39.4,29.4,29.85,SE,134,0.0,0.0,67,0.00,,,0.00,0,WeatherCatV1.14B232,2013-03-06 01:01:00,
2013-03-05 20:06:00,38.8,29.2,29.85,SE,134,0.0,0.0,68,0.00,,,0.00,0,WeatherCatV1.14B232,2013-03-06 01:06:00,
2013-03-05 20:11:00,38.4,29.1,29.85,SE,133,0.0,0.0,69,0.00,,,0.00,0,WeatherCatV1.14B232,2013-03-06 01:11:00,
2013-03-05 20:16:00,38.2,29.3,29.85,SE,134,0.0,0.0,70,0.00,,,0.00,0,WeatherCatV1.14B232,2013-03-06 01:16:00,
2013-03-05 20:21:00,38.3,29.4,29.85,SE,134,0.0,0.0,70,0.00,,,0.00,0,WeatherCatV1.14B232,2013-03-06 01:21:00,
2013-03-05 20:26:00,38.3,29.4,29.85,SE,133,0.0,0.0,70,0.00,,,0.00,0,WeatherCatV1.14B232,2013-03-06 01:26:00,
2013-03-05 20:31:00,38.2,29.3,29.85,SE,134,0.0,0.0,70,0.00,,,0.00,0,WeatherCatV1.14B232,2013-03-06 01:31:00,
2013-03-05 20:36:00,38.3,29.4,29.85,SE,134,0.0,0.0,70,0.00,,,0.00,0,WeatherCatV1.14B232,2013-03-06 01:36:00,
2013-03-05 20:41:00,38.6,29.0,29.85,SE,134,0.0,0.0,68,0.00,,,0.00,0,WeatherCatV1.14B232,2013-03-06 01:41:00,
2013-03-05 20:46:00,38.7,29.1,29.85,SE,134,0.0,0.0,68,0.00,,,0.00,0,WeatherCatV1.14B232,2013-03-06 01:46:00,
2013-03-05 20:51:00,38.8,29.2,29.85,SE,134,0.0,0.0,68,0.00,,,0.00,0,WeatherCatV1.14B232,2013-03-06 01:51:00,
2013-03-05 20:56:00,38.7,29.1,29.85,SE,134,0.0,0.0,68,0.00,,,0.00,0,WeatherCatV1.14B232,2013-03-06 01:56:00,
2013-03-05 21:01:00,38.7,29.4,29.85,SE,133,0.0,0.0,69,0.00,,,0.00,0,WeatherCatV1.14B232,2013-03-06 02:01:00,
2013-03-05 21:06:00,38.7,29.1,29.85,SE,134,0.0,0.0,68,0.00,,,0.00,0,WeatherCatV1.14B232,2013-03-06 02:06:00,
2013-03-05 21:11:00,38.6,29.0,29.85,SE,134,0.0,0.0,68,0.00,,,0.00,0,WeatherCatV1.14B232,2013-03-06 02:11:00,
2013-03-05 21:16:00,38.4,28.8,29.86,SE,134,0.0,0.0,68,0.00,,,0.00,0,WeatherCatV1.14B232,2013-03-06 02:16:00,
2013-03-05 21:21:00,38.8,28.8,29.85,SE,134,0.0,0.0,67,0.00,,,0.00,0,WeatherCatV1.14B232,2013-03-06 02:21:00,
2013-03-05 21:26:00,38.9,28.9,29.85,SE,134,0.0,0.0,67,0.00,,,0.00,0,WeatherCatV1.14B232,2013-03-06 02:26:00,
2013-03-05 21:31:00,39.3,28.9,29.85,SE,134,0.0,0.0,66,0.00,,,0.00,0,WeatherCatV1.14B232,2013-03-06 02:31:00,
2013-03-05 21:36:00,39.5,29.5,29.85,SE,134,0.0,0.0,67,0.00,,,0.00,0,WeatherCatV1.14B232,2013-03-06 02:36:00,
2013-03-05 21:41:00,39.6,29.2,29.86,SE,134,0.0,0.0,66,0.00,,,0.00,0,WeatherCatV1.14B232,2013-03-06 02:41:00,
2013-03-05 21:46:00,39.9,29.8,29.86,SE,134,0.0,0.0,67,0.00,,,0.00,0,WeatherCatV1.14B232,2013-03-06 02:46:00,
2013-03-05 21:51:00,40.1,29.3,29.86,SSE,162,1.0,1.0,65,0.00,,,0.00,0,WeatherCatV1.14B232,2013-03-06 02:51:00,
2013-03-05 21:56:00,40.3,29.5,29.86,ESE,104,0.0,2.0,65,0.00,,,0.00,0,WeatherCatV1.14B232,2013-03-06 02:56:00,
2013-03-05 22:01:00,40.2,29.4,29.85,ESE,104,0.0,0.0,65,0.00,,,0.00,0,WeatherCatV1.14B232,2013-03-06 03:01:00,
2013-03-05 22:06:00,40.1,29.7,29.85,ESE,108,1.0,1.0,66,0.00,,,0.00,0,WeatherCatV1.14B232,2013-03-06 03:06:00,
2013-03-05 22:11:00,40.0,29.6,29.85,SE,130,0.0,1.0,66,0.00,,,0.00,0,WeatherCatV1.14B232,2013-03-06 03:11:00,
2013-03-05 22:16:00,40.0,29.2,29.86,ESE,109,1.0,2.0,65,0.00,,,0.00,0,WeatherCatV1.14B232,2013-03-06 03:16:00,
2013-03-05 22:21:00,40.0,29.6,29.85,ESE,119,0.0,1.0,66,0.00,,,0.00,0,WeatherCatV1.14B232,2013-03-06 03:21:00,
2013-03-05 22:26:00,40.0,29.6,29.85,ESE,117,0.0,1.0,66,0.00,,,0.00,0,WeatherCatV1.14B232,2013-03-06 03:26:00,
2013-03-05 22:31:00,39.8,29.8,29.85,SE,140,2.0,2.0,67,0.00,,,0.00,0,WeatherCatV1.14B232,2013-03-06 03:31:00,
2013-03-05 22:36:00,39.8,29.4,29.85,South,185,0.0,0.0,66,0.00,,,0.00,0,WeatherCatV1.14B232,2013-03-06 03:36:00,
2013-03-05 22:41:00,39.7,28.9,29.85,SE,136,0.0,2.0,65,0.00,,,0.00,0,WeatherCatV1.14B232,2013-03-06 03:41:00,
2013-03-05 22:46:00,39.7,28.9,29.85,SE,136,0.0,0.0,65,0.00,,,0.00,0,WeatherCatV1.14B232,2013-03-06 03:46:00,
2013-03-05 22:51:00,39.8,29.0,29.85,SE,126,2.0,2.0,65,0.00,,,0.00,0,WeatherCatV1.14B232,2013-03-06 03:51:00,
2013-03-05 22:56:00,39.7,28.9,29.85,SE,126,0.0,2.0,65,0.00,,,0.00,0,WeatherCatV1.14B232,2013-03-06 03:56:00,
2013-03-05 23:01:00,39.7,29.3,29.85,SE,126,0.0,0.0,66,0.00,,,0.00,0,WeatherCatV1.14B232,2013-03-06 04:01:00,
2013-03-05 23:06:00,39.5,29.5,29.85,SE,126,0.0,0.0,67,0.00,,,0.00,0,WeatherCatV1.14B232,2013-03-06 04:06:00,
2013-03-05 23:11:00,39.4,29.4,29.85,SE,126,0.0,0.0,67,0.00,,,0.00,0,WeatherCatV1.14B232,2013-03-06 04:11:00,
2013-03-05 23:16:00,39.5,29.1,29.85,SE,135,0.0,0.0,66,0.00,,,0.00,0,WeatherCatV1.14B232,2013-03-06 04:16:00,
2013-03-05 23:21:00,39.5,29.5,29.84,SSE,153,0.0,0.0,67,0.00,,,0.00,0,WeatherCatV1.14B232,2013-03-06 04:21:00,
2013-03-05 23:26:00,39.5,29.5,29.85,SSE,153,0.0,2.0,67,0.00,,,0.00,0,WeatherCatV1.14B232,2013-03-06 04:26:00,
2013-03-05 23:31:00,39.5,29.8,29.85,ESE,107,0.0,0.0,68,0.00,,,0.00,0,WeatherCatV1.14B232,2013-03-06 04:31:00,
2013-03-05 23:36:00,39.3,30.0,29.84,ESE,107,0.0,0.0,69,0.00,,,0.00,0,WeatherCatV1.14B232,2013-03-06 04:36:00,
2013-03-05 23:41:00,39.3,30.3,29.84,ESE,107,0.0,0.0,70,0.00,,,0.00,0,WeatherCatV1.14B232,2013-03-06 04:41:00,
2013-03-05 23:46:00,39.3,30.7,29.84,ESE,107,0.0,0.0,71,0.00,,,0.00,0,WeatherCatV1.14B232,2013-03-06 04:46:00,
2013-03-05 23:51:00,39.2,30.6,29.84,ESE,107,0.0,0.0,71,0.00,,,0.00,0,WeatherCatV1.14B232,2013-03-06 04:51:00,
2013-03-05 23:56:00,39.2,30.6,29.83,ESE,104,0.0,2.0,71,0.00,,,0.00,0,WeatherCatV1.14B232,2013-03-06 04:56:00,